OPS-SAT (44878 NORAD) Tracking and Keplerian Element Data

This shows tracking and keplerian element data for the satellite.

Feedback or suggestion? Click here.




ElementValue
Catalog44878
NameOPS-SAT
Epoch Orbit527
Epoch Day22.4453736
Epoch Year2020
RAAN208.2616
Inclination97.464
Eccentricity0.0015644
Argument of Perigee141.3121
Mean Anonmoly218.9342
Mean Motion15.15212753
Decay Rate-6.6E-07
L11 44878U 19092F 20022.44537360 -.00000066 00000-0 00000-0 0 9993
L22 44878 97.4640 208.2616 0015644 141.3121 218.9342 15.15212753 5276

Live tracking and technical data element details for OPS-SAT (NORAD 44878). OPS-SAT can be tracked NOW for your location showing map with azimuth and elevation plus other details from your city location.

Track the satellite on the map from your city or location and see movement details for azimuth, elevation, latitude, longitude, range, height, and movement on the map or in text.







IsCatalogInMostPopularTable: catalog: 44878, numindb: 9
Update: records affected: 1



GetName: 44878 OPS-SAT

Hit Count: updated at: Fri, 24 Jan 2020 12:17:53 GMT